Regional Weather Roundup
Issued by NWS

Home | Current Version | Previous Version | Graphics & Text | Print | Product List | Glossary On
Versions: 1 2 3 4 5 6 7 8 9 10 11 12 13 14 15 16 17 18 19 20 21 22 23 24 25 26 27 28 29 30 31 32 33 34 35 36 37 38 39 40 41 42 43 44 45 46 47 48 49 50
000
ASUS43 KBIS 310402
RWRND

NORTH DAKOTA REGIONAL WEATHER ROUNDUP
NATIONAL WEATHER SERVICE BISMARCK ND
1100 PM CDT TUE AUG 30 2016

NOTE: "FAIR" INDICATES FEW OR NO CLOUDS BELOW 12,000 FEET WITH NO
SIGNIFICANT WEATHER AND/OR OBSTRUCTIONS TO VISIBILITY.


NDZ001>003-009>011-017-310500-
NORTHWEST NORTH DAKOTA

CITY           SKY/WX    TMP DP  RH WIND       PRES   REMARKS
WILLISTON      CLOUDY    73  48  41 E7        30.14S
MINOT          CLEAR     61  50  67 E8        30.19R
MINOT AFB      CLEAR     62  51  68 SE10      30.18R
$$

NDZ018>021-031>035-040>046-310500-
SOUTHWEST NORTH DAKOTA

CITY           SKY/WX    TMP DP  RH WIND       PRES   REMARKS
BISMARCK       PTCLDY    67  53  61 E7        30.18S
DICKINSON      CLOUDY    67  54  63 E10       30.13S
GARRISON         N/A     67  55  65 E9        30.17F
HETTINGER ARPT CLEAR     71  60  68 SE7       30.17S
$$

NDZ004>008-012>016-024-026-027-054-310500-
NORTHEAST NORTH DAKOTA

CITY           SKY/WX    TMP DP  RH WIND       PRES   REMARKS
GRAND FORKS    PTCLDY    59  53  80 CALM      30.21R
GRND FRKS AFB  PTCLDY    58  55  89 NW2       30.22R
DEVILS LAKE    CLEAR     63  55  75 E8        30.23S
$$

NDZ022-023-025-028>030-036>039-047>053-310500-
SOUTHEAST NORTH DAKOTA

CITY           SKY/WX    TMP DP  RH WIND       PRES   REMARKS
FARGO          CLEAR     61  54  77 CALM      30.20R
JAMESTOWN      CLEAR     61  56  83 E6        30.21R
$$




USA.gov is the U.S. government's official web portal to all federal, state and local government web resources and services.